Time,TemperatureF,DewpointF,PressureIn,WindDirection,WindDirectionDegrees,WindSpeedMPH,WindSpeedGustMPH,Humidity,HourlyPrecipIn,Conditions,Clouds,dailyrainin,SolarRadiationWatts/m^2,SoftwareType,DateUTC
2013-06-17 00:05:00,69.6,66.9,29.89,WSW,254,0.0,0.0,91,0.00,,CLR,0.00,0.00,VWS V14.01,2013-06-17 05:05:00,
2013-06-17 00:10:00,69.6,66.9,29.89,WSW,254,0.0,0.0,91,0.00,,CLR,0.00,0.00,VWS V14.01,2013-06-17 05:10:00,
2013-06-17 00:15:00,69.4,67.0,29.90,WSW,254,0.0,0.0,92,0.00,,CLR,0.00,0.00,VWS V14.01,2013-06-17 05:15:00,
2013-06-17 00:20:00,69.3,66.9,29.90,WSW,254,0.0,0.0,92,0.00,,CLR,0.00,0.00,VWS V14.01,2013-06-17 05:20:00,
2013-06-17 00:25:00,69.3,66.9,29.90,WSW,254,0.0,0.0,92,0.00,,CLR,0.00,0.00,VWS V14.01,2013-06-17 05:25:00,
2013-06-17 00:30:00,69.3,66.9,29.90,WSW,254,0.0,0.0,92,0.00,,CLR,0.00,0.00,VWS V14.01,2013-06-17 05:30:00,
2013-06-17 00:35:00,69.1,66.7,29.90,WSW,254,0.0,0.0,92,0.00,,CLR,0.00,0.00,VWS V14.01,2013-06-17 05:35:00,
2013-06-17 00:40:00,69.1,66.7,29.91,WSW,254,0.0,0.0,92,0.00,,CLR,0.00,0.00,VWS V14.01,2013-06-17 05:40:00,
2013-06-17 00:45:00,69.1,66.7,29.90,WSW,254,0.0,0.0,92,0.00,,CLR,0.00,0.00,VWS V14.01,2013-06-17 05:45:00,
2013-06-17 00:50:00,69.3,66.9,29.90,WSW,254,0.0,0.0,92,0.00,,CLR,0.00,0.00,VWS V14.01,2013-06-17 05:50:00,
2013-06-17 00:55:00,69.1,66.7,29.90,WSW,254,0.0,0.0,92,0.00,,CLR,0.00,0.00,VWS V14.01,2013-06-17 05:55:00,
2013-06-17 01:01:00,68.9,66.5,29.90,WSW,254,0.0,0.0,92,0.00,,CLR,0.00,0.00,VWS V14.01,2013-06-17 06:01:00,
2013-06-17 01:06:00,68.9,66.5,29.91,WSW,254,0.0,0.0,92,0.00,,CLR,0.00,0.00,VWS V14.01,2013-06-17 06:06:00,
2013-06-17 01:11:00,68.8,66.4,29.90,WSW,254,0.0,0.0,92,0.00,,CLR,0.00,0.00,VWS V14.01,2013-06-17 06:11:00,
2013-06-17 01:16:00,68.6,66.2,29.90,WSW,254,0.0,0.0,92,0.00,,CLR,0.00,0.00,VWS V14.01,2013-06-17 06:16:00,
2013-06-17 01:21:00,68.4,66.0,29.89,WSW,254,0.0,0.0,92,0.00,,CLR,0.00,0.00,VWS V14.01,2013-06-17 06:21:00,
2013-06-17 01:26:00,68.4,66.0,29.89,WSW,254,0.0,0.0,92,0.00,,CLR,0.00,0.00,VWS V14.01,2013-06-17 06:26:00,
2013-06-17 01:31:00,68.3,66.2,29.89,WSW,254,0.0,0.0,93,0.00,,CLR,0.00,0.00,VWS V14.01,2013-06-17 06:31:00,
2013-06-17 01:36:00,68.3,66.2,29.89,WSW,254,0.0,0.0,93,0.00,,CLR,0.00,0.00,VWS V14.01,2013-06-17 06:36:00,
2013-06-17 01:41:00,68.1,66.0,29.88,WSW,254,0.0,0.0,93,0.00,,CLR,0.00,0.00,VWS V14.01,2013-06-17 06:41:00,
2013-06-17 01:46:00,68.1,66.0,29.89,WSW,254,0.0,0.0,93,0.00,,CLR,0.00,0.00,VWS V14.01,2013-06-17 06:46:00,
2013-06-17 01:51:00,68.3,66.5,29.88,WSW,254,0.0,0.0,94,0.00,,CLR,0.00,0.00,VWS V14.01,2013-06-17 06:51:00,
2013-06-17 01:56:00,68.3,66.5,29.88,WSW,254,0.0,0.0,94,0.00,,CLR,0.00,0.00,VWS V14.01,2013-06-17 06:56:00,
2013-06-17 02:01:00,68.3,66.5,29.87,WSW,254,0.0,0.0,94,0.00,,CLR,0.00,0.00,VWS V14.01,2013-06-17 07:01:00,
2013-06-17 02:06:00,68.3,66.5,29.87,WSW,254,0.0,0.0,94,0.00,,CLR,0.00,0.00,VWS V14.01,2013-06-17 07:06:00,
2013-06-17 02:11:00,68.3,66.5,29.87,WSW,254,0.0,0.0,94,0.00,,CLR,0.00,0.00,VWS V14.01,2013-06-17 07:11:00,
2013-06-17 02:16:00,68.3,66.5,29.87,WSW,254,0.0,0.0,94,0.00,,CLR,0.00,0.00,VWS V14.01,2013-06-17 07:16:00,
2013-06-17 02:21:00,68.3,66.5,29.87,WSW,254,0.0,0.0,94,0.00,,CLR,0.00,0.00,VWS V14.01,2013-06-17 07:21:00,
2013-06-17 02:26:00,68.4,66.6,29.87,WSW,254,0.0,0.0,94,0.00,,CLR,0.00,0.00,VWS V14.01,2013-06-17 07:26:00,
2013-06-17 02:31:00,68.4,66.9,29.87,WSW,254,0.0,0.0,95,0.00,,CLR,0.00,0.00,VWS V14.01,2013-06-17 07:31:00,
2013-06-17 02:36:00,68.4,66.9,29.88,WSW,254,0.0,1.0,95,0.00,,CLR,0.00,0.00,VWS V14.01,2013-06-17 07:36:00,
2013-06-17 02:41:00,68.4,66.9,29.88,WSW,254,0.0,2.0,95,0.00,,CLR,0.00,0.00,VWS V14.01,2013-06-17 07:41:00,
2013-06-17 02:46:00,68.3,66.8,29.88,WSW,254,0.0,0.0,95,0.00,,CLR,0.00,0.00,VWS V14.01,2013-06-17 07:46:00,
2013-06-17 02:51:00,68.3,66.8,29.89,WSW,254,0.0,0.0,95,0.00,,CLR,0.00,0.00,VWS V14.01,2013-06-17 07:51:00,
2013-06-17 02:56:00,68.1,66.6,29.89,WSW,254,0.0,0.0,95,0.00,,CLR,0.00,0.00,VWS V14.01,2013-06-17 07:56:00,
2013-06-17 03:01:00,67.9,66.4,29.89,WSW,254,0.0,2.0,95,0.00,,CLR,0.00,0.00,VWS V14.01,2013-06-17 08:01:00,
2013-06-17 03:06:00,67.9,66.4,29.88,WSW,254,0.0,0.0,95,0.00,,CLR,0.00,0.00,VWS V14.01,2013-06-17 08:06:00,
2013-06-17 03:11:00,67.8,66.3,29.88,WSW,254,0.0,0.0,95,0.00,,CLR,0.00,0.00,VWS V14.01,2013-06-17 08:11:00,
2013-06-17 03:16:00,67.6,66.1,29.88,WSW,254,0.0,0.0,95,0.00,,CLR,0.00,0.00,VWS V14.01,2013-06-17 08:16:00,
2013-06-17 03:21:00,67.4,65.9,29.88,WSW,254,0.0,0.0,95,0.00,,CLR,0.00,0.00,VWS V14.01,2013-06-17 08:21:00,
2013-06-17 03:26:00,67.3,65.8,29.88,WSW,254,0.0,0.0,95,0.00,,CLR,0.00,0.00,VWS V14.01,2013-06-17 08:26:00,
2013-06-17 03:31:00,67.1,65.9,29.88,WSW,254,0.0,0.0,96,0.00,,CLR,0.00,0.00,VWS V14.01,2013-06-17 08:31:00,
2013-06-17 03:36:00,67.1,65.6,29.88,WSW,254,0.0,0.0,95,0.00,,CLR,0.00,0.00,VWS V14.01,2013-06-17 08:36:00,
2013-06-17 03:41:00,66.9,65.7,29.88,WSW,254,0.0,0.0,96,0.00,,CLR,0.00,0.00,VWS V14.01,2013-06-17 08:41:00,
2013-06-17 03:46:00,66.9,65.7,29.88,WSW,254,0.0,0.0,96,0.00,,CLR,0.00,0.00,VWS V14.01,2013-06-17 08:46:00,
2013-06-17 03:51:00,66.8,65.6,29.88,WSW,254,0.0,0.0,96,0.00,,CLR,0.00,0.00,VWS V14.01,2013-06-17 08:51:00,
2013-06-17 03:56:00,66.8,65.6,29.88,WSW,254,0.0,0.0,96,0.00,,CLR,0.00,0.00,VWS V14.01,2013-06-17 08:56:00,
2013-06-17 04:01:00,66.8,65.6,29.88,WSW,254,0.0,0.0,96,0.00,,,0.00,0.00,VWS V14.01,2013-06-17 09:01:00,
2013-06-17 04:06:00,66.4,65.2,29.88,WSW,254,0.0,0.0,96,0.00,,,0.00,0.00,VWS V14.01,2013-06-17 09:06:00,
2013-06-17 04:11:00,66.1,64.9,29.88,WSW,254,0.0,0.0,96,0.00,,,0.00,0.00,VWS V14.01,2013-06-17 09:11:00,
2013-06-17 04:16:00,66.1,64.9,29.88,WSW,254,0.0,0.0,96,0.00,,,0.00,0.00,VWS V14.01,2013-06-17 09:16:00,
2013-06-17 04:21:00,66.1,64.9,29.88,WSW,254,0.0,0.0,96,0.00,,,0.00,0.00,VWS V14.01,2013-06-17 09:21:00,
2013-06-17 04:26:00,66.3,65.1,29.88,WSW,254,0.0,0.0,96,0.00,,,0.00,0.00,VWS V14.01,2013-06-17 09:26:00,
2013-06-17 04:31:00,66.3,65.1,29.88,WSW,254,0.0,0.0,96,0.00,,,0.00,0.00,VWS V14.01,2013-06-17 09:31:00,
2013-06-17 04:36:00,66.4,65.2,29.87,WSW,254,0.0,0.0,96,0.00,,,0.00,0.00,VWS V14.01,2013-06-17 09:36:00,
2013-06-17 04:41:00,66.4,65.2,29.87,WSW,254,0.0,0.0,96,0.00,,,0.00,0.00,VWS V14.01,2013-06-17 09:41:00,
2013-06-17 04:46:00,66.4,65.2,29.87,WSW,254,0.0,0.0,96,0.00,,,0.00,0.00,VWS V14.01,2013-06-17 09:46:00,
2013-06-17 04:51:00,66.4,65.2,29.87,WSW,254,0.0,0.0,96,0.00,,,0.00,0.00,VWS V14.01,2013-06-17 09:51:00,
2013-06-17 04:56:00,66.4,65.2,29.86,WSW,254,0.0,0.0,96,0.00,,,0.00,0.00,VWS V14.01,2013-06-17 09:56:00,
2013-06-17 05:01:00,66.3,65.1,29.86,WSW,254,0.0,0.0,96,0.00,,,0.00,0.00,VWS V14.01,2013-06-17 10:01:00,
2013-06-17 05:06:00,66.3,65.1,29.87,WSW,254,0.0,0.0,96,0.00,,,0.00,0.00,VWS V14.01,2013-06-17 10:06:00,
2013-06-17 05:11:00,66.1,64.9,29.87,WSW,254,0.0,0.0,96,0.00,,,0.00,0.00,VWS V14.01,2013-06-17 10:11:00,
2013-06-17 05:16:00,66.3,65.4,29.87,WSW,254,0.0,0.0,97,0.00,,,0.00,0.00,VWS V14.01,2013-06-17 10:16:00,
2013-06-17 05:21:00,66.3,65.4,29.87,WSW,254,0.0,0.0,97,0.00,,,0.00,0.00,VWS V14.01,2013-06-17 10:21:00,
2013-06-17 05:26:00,66.3,65.1,29.87,WSW,254,0.0,0.0,96,0.00,,,0.00,0.00,VWS V14.01,2013-06-17 10:26:00,
2013-06-17 05:31:00,66.1,64.9,29.87,WSW,254,0.0,0.0,96,0.00,,,0.00,5.00,VWS V14.01,2013-06-17 10:31:00,
2013-06-17 05:36:00,66.1,64.9,29.87,WSW,254,0.0,0.0,96,0.00,,,0.00,9.00,VWS V14.01,2013-06-17 10:36:00,
2013-06-17 05:41:00,66.0,65.1,29.87,WSW,254,0.0,0.0,97,0.00,,,0.00,11.00,VWS V14.01,2013-06-17 10:41:00,
2013-06-17 05:46:00,66.0,64.8,29.87,WSW,254,0.0,0.0,96,0.00,,,0.00,16.00,VWS V14.01,2013-06-17 10:46:00,
2013-06-17 05:51:00,65.8,64.6,29.88,WSW,254,0.0,0.0,96,0.00,,,0.00,19.00,VWS V14.01,2013-06-17 10:51:00,
2013-06-17 05:56:00,65.6,64.7,29.88,WSW,254,0.0,0.0,97,0.00,,,0.00,25.00,VWS V14.01,2013-06-17 10:56:00,
2013-06-17 06:01:00,65.6,64.7,29.88,WSW,254,0.0,0.0,97,0.00,,,0.00,28.00,VWS V14.01,2013-06-17 11:01:00,
2013-06-17 06:06:00,65.6,64.7,29.89,WSW,254,0.0,0.0,97,0.00,,,0.00,30.00,VWS V14.01,2013-06-17 11:06:00,
2013-06-17 06:11:00,66.0,65.1,29.89,WSW,254,0.0,0.0,97,0.00,,,0.00,28.00,VWS V14.01,2013-06-17 11:11:00,
2013-06-17 06:16:00,66.1,65.2,29.89,WSW,254,0.0,0.0,97,0.00,,,0.00,33.00,VWS V14.01,2013-06-17 11:16:00,
2013-06-17 06:21:00,66.9,66.0,29.89,WSW,254,0.0,0.0,97,0.00,,,0.00,37.00,VWS V14.01,2013-06-17 11:21:00,
2013-06-17 06:26:00,67.3,66.4,29.89,WSW,254,0.0,0.0,97,0.00,,,0.00,44.00,VWS V14.01,2013-06-17 11:26:00,
2013-06-17 06:31:00,67.6,66.7,29.89,WSW,254,0.0,0.0,97,0.00,,,0.00,60.00,VWS V14.01,2013-06-17 11:31:00,
2013-06-17 06:36:00,67.9,67.0,29.89,WSW,253,1.0,2.0,97,0.00,,,0.00,84.00,VWS V14.01,2013-06-17 11:36:00,
2013-06-17 06:41:00,68.1,67.2,29.90,WSW,253,0.0,0.0,97,0.00,,,0.00,116.00,VWS V14.01,2013-06-17 11:41:00,
2013-06-17 06:46:00,68.3,67.4,29.90,WSW,253,2.0,2.0,97,0.00,,,0.00,153.00,VWS V14.01,2013-06-17 11:46:00,
2013-06-17 06:52:00,68.6,67.7,29.90,WSW,253,0.0,1.0,97,0.00,,,0.00,188.00,VWS V14.01,2013-06-17 11:52:00,
2013-06-17 06:57:00,68.9,68.0,29.90,WSW,253,2.0,3.0,97,0.00,,,0.00,206.00,VWS V14.01,2013-06-17 11:57:00,
2013-06-17 07:02:00,69.1,68.2,29.90,SW,236,3.0,4.0,97,0.00,,,0.00,218.00,VWS V14.01,2013-06-17 12:02:00,
2013-06-17 07:07:00,69.3,68.1,29.90,SW,235,4.0,4.0,96,0.00,,,0.00,237.00,VWS V14.01,2013-06-17 12:07:00,
2013-06-17 07:12:00,69.6,68.4,29.90,SW,235,0.0,0.0,96,0.00,,,0.00,248.00,VWS V14.01,2013-06-17 12:12:00,
2013-06-17 07:17:00,70.1,68.9,29.89,SW,235,0.0,2.0,96,0.00,,,0.00,262.00,VWS V14.01,2013-06-17 12:17:00,
2013-06-17 07:22:00,70.6,69.4,29.89,SW,235,0.0,1.0,96,0.00,,,0.00,287.00,VWS V14.01,2013-06-17 12:22:00,
2013-06-17 07:27:00,70.6,69.1,29.89,SW,235,1.0,2.0,95,0.00,,,0.00,276.00,VWS V14.01,2013-06-17 12:27:00,
2013-06-17 07:32:00,70.8,69.0,29.89,SW,235,3.0,3.0,94,0.00,,,0.00,292.00,VWS V14.01,2013-06-17 12:32:00,
2013-06-17 07:38:00,71.1,69.3,29.89,SW,235,1.0,1.0,94,0.00,,,0.00,309.00,VWS V14.01,2013-06-17 12:38:00,
2013-06-17 07:43:00,71.5,69.4,29.89,SW,235,1.0,2.0,93,0.00,,,0.00,327.00,VWS V14.01,2013-06-17 12:43:00,
2013-06-17 07:48:00,71.8,69.3,29.89,SW,235,2.0,5.0,92,0.00,,,0.00,385.00,VWS V14.01,2013-06-17 12:48:00,
2013-06-17 07:53:00,72.0,68.9,29.89,SW,235,3.0,4.0,90,0.00,,,0.00,345.00,VWS V14.01,2013-06-17 12:53:00,
2013-06-17 07:58:00,72.3,68.6,29.89,SW,235,4.0,4.0,88,0.00,,,0.00,369.00,VWS V14.01,2013-06-17 12:58:00,
2013-06-17 08:03:00,72.5,68.1,29.89,SW,235,2.0,4.0,86,0.00,,,0.00,373.00,VWS V14.01,2013-06-17 13:03:00,
2013-06-17 08:08:00,72.8,68.4,29.90,SW,235,1.0,1.0,86,0.00,,,0.00,306.00,VWS V14.01,2013-06-17 13:08:00,
2013-06-17 08:13:00,73.2,68.1,29.90,SW,235,3.0,4.0,84,0.00,,,0.00,373.00,VWS V14.01,2013-06-17 13:13:00,
2013-06-17 08:19:00,73.5,67.7,29.90,SW,235,4.0,4.0,82,0.00,,,0.00,403.00,VWS V14.01,2013-06-17 13:19:00,
2013-06-17 08:24:00,73.9,68.1,29.90,SW,235,0.0,2.0,82,0.00,,,0.00,424.00,VWS V14.01,2013-06-17 13:24:00,
2013-06-17 08:30:00,74.2,68.4,29.90,SW,235,1.0,3.0,82,0.00,,,0.00,410.00,VWS V14.01,2013-06-17 13:30:00,
2013-06-17 08:35:00,74.4,67.8,29.91,WSW,238,2.0,4.0,80,0.00,,,0.00,408.00,VWS V14.01,2013-06-17 13:35:00,
2013-06-17 08:40:00,74.6,68.0,29.91,WSW,239,1.0,4.0,80,0.00,,,0.00,394.00,VWS V14.01,2013-06-17 13:40:00,
2013-06-17 08:45:00,74.9,67.2,29.90,WSW,239,0.0,3.0,77,0.00,,,0.00,552.00,VWS V14.01,2013-06-17 13:45:00,
2013-06-17 08:50:00,75.6,67.1,29.90,WSW,239,0.0,2.0,75,0.00,,,0.00,570.00,VWS V14.01,2013-06-17 13:50:00,
2013-06-17 08:55:00,76.0,66.3,29.90,West,259,2.0,5.0,72,0.00,,,0.00,592.00,VWS V14.01,2013-06-17 13:55:00,
2013-06-17 09:00:00,76.5,67.2,29.90,West,259,2.0,3.0,73,0.00,,,0.00,552.00,VWS V14.01,2013-06-17 14:00:00,
2013-06-17 09:05:00,76.7,67.0,29.90,WSW,258,0.0,2.0,72,0.00,,,0.00,605.00,VWS V14.01,2013-06-17 14:05:00,
2013-06-17 09:10:00,77.2,65.4,29.90,West,259,0.0,3.0,67,0.00,,,0.00,575.00,VWS V14.01,2013-06-17 14:10:00,
2013-06-17 09:15:00,77.7,65.0,29.90,West,259,0.0,1.0,65,0.00,,,0.00,624.00,VWS V14.01,2013-06-17 14:15:00,
2013-06-17 09:20:00,78.3,66.0,29.89,WSW,257,3.0,4.0,66,0.00,,,0.00,629.00,VWS V14.01,2013-06-17 14:20:00,
2013-06-17 09:25:00,78.5,64.0,29.89,WSW,257,2.0,3.0,61,0.00,,,0.00,652.00,VWS V14.01,2013-06-17 14:25:00,
2013-06-17 09:31:00,78.8,65.2,29.89,WSW,257,0.0,1.0,63,0.00,,,0.00,642.00,VWS V14.01,2013-06-17 14:31:00,
2013-06-17 09:36:00,79.2,64.1,29.89,WSW,257,0.0,1.0,60,0.00,,,0.00,668.00,VWS V14.01,2013-06-17 14:36:00,
2013-06-17 09:41:00,79.4,62.3,29.89,WSW,257,1.0,4.0,56,0.00,,,0.00,645.00,VWS V14.01,2013-06-17 14:41:00,
2013-06-17 09:46:00,79.8,60.6,29.89,WSW,257,0.0,0.0,52,0.00,,,0.00,645.00,VWS V14.01,2013-06-17 14:46:00,
2013-06-17 09:51:00,80.1,60.4,29.89,WSW,257,0.0,2.0,51,0.00,,,0.00,675.00,VWS V14.01,2013-06-17 14:51:00,
2013-06-17 09:56:00,80.3,58.8,29.89,WSW,257,0.0,2.0,48,0.00,,,0.00,629.00,VWS V14.01,2013-06-17 14:56:00,
2013-06-17 10:01:00,80.9,61.1,29.89,WSW,257,0.0,1.0,51,0.00,,CLR,0.00,596.00,VWS V14.01,2013-06-17 15:01:00,
2013-06-17 10:06:00,81.1,61.8,29.89,WSW,257,0.0,0.0,52,0.00,,CLR,0.00,654.00,VWS V14.01,2013-06-17 15:06:00,
2013-06-17 10:11:00,81.6,61.7,29.89,WSW,257,0.0,1.0,51,0.00,,CLR,0.00,728.00,VWS V14.01,2013-06-17 15:11:00,
2013-06-17 10:16:00,82.2,61.2,29.89,WSW,257,1.0,3.0,49,0.00,,CLR,0.00,526.00,VWS V14.01,2013-06-17 15:16:00,
2013-06-17 10:22:00,82.4,61.9,29.89,WSW,257,2.0,2.0,50,0.00,,CLR,0.00,422.00,VWS V14.01,2013-06-17 15:22:00,
2013-06-17 10:27:00,82.2,58.1,29.89,WSW,257,0.0,0.0,44,0.00,,CLR,0.00,610.00,VWS V14.01,2013-06-17 15:27:00,
2013-06-17 10:32:00,82.4,58.3,29.89,WSW,257,1.0,3.0,44,0.00,,CLR,0.00,650.00,VWS V14.01,2013-06-17 15:32:00,
2013-06-17 10:37:00,82.8,58.7,29.88,WSW,257,4.0,4.0,44,0.00,,CLR,0.00,675.00,VWS V14.01,2013-06-17 15:37:00,
2013-06-17 10:42:00,82.6,58.5,29.89,WSW,257,1.0,1.0,44,0.00,,CLR,0.00,715.00,VWS V14.01,2013-06-17 15:42:00,
2013-06-17 10:47:00,83.0,57.6,29.89,WSW,257,0.0,0.0,42,0.00,,CLR,0.00,714.00,VWS V14.01,2013-06-17 15:47:00,
2013-06-17 10:52:00,83.4,55.9,29.89,WSW,257,3.0,4.0,39,0.00,,CLR,0.00,742.00,VWS V14.01,2013-06-17 15:52:00,
2013-06-17 10:57:00,83.6,54.6,29.89,WSW,257,0.0,2.0,37,0.00,,CLR,0.00,788.00,VWS V14.01,2013-06-17 15:57:00,
2013-06-17 11:02:00,83.6,56.0,29.89,WSW,258,3.0,4.0,39,0.00,,CLR,0.00,742.00,VWS V14.01,2013-06-17 16:02:00,
2013-06-17 11:07:00,83.6,48.0,29.89,West,261,2.0,2.0,29,0.00,,CLR,0.00,768.00,VWS V14.01,2013-06-17 16:07:00,
2013-06-17 11:12:00,84.0,50.2,29.89,West,261,0.0,1.0,31,0.00,,CLR,0.00,752.00,VWS V14.01,2013-06-17 16:12:00,
2013-06-17 11:17:00,84.3,49.5,29.89,West,261,0.0,2.0,30,0.00,,CLR,0.00,752.00,VWS V14.01,2013-06-17 16:17:00,
2013-06-17 11:22:00,84.5,49.7,29.89,West,261,2.0,3.0,30,0.00,,CLR,0.00,788.00,VWS V14.01,2013-06-17 16:22:00,
2013-06-17 11:27:00,84.3,48.6,29.89,NE,43,2.0,4.0,29,0.00,,CLR,0.00,777.00,VWS V14.01,2013-06-17 16:27:00,
2013-06-17 11:32:00,84.1,47.5,29.89,NE,44,1.0,2.0,28,0.00,,CLR,0.00,777.00,VWS V14.01,2013-06-17 16:32:00,
2013-06-17 11:37:00,84.5,47.8,29.89,East,79,4.0,4.0,28,0.00,,CLR,0.00,717.00,VWS V14.01,2013-06-17 16:37:00,
2013-06-17 11:43:00,84.5,46.9,29.89,ESE,107,0.0,1.0,27,0.00,,CLR,0.00,768.00,VWS V14.01,2013-06-17 16:43:00,
2013-06-17 11:48:00,84.5,46.9,29.89,ESE,107,1.0,4.0,27,0.00,,CLR,0.00,722.00,VWS V14.01,2013-06-17 16:48:00,
2013-06-17 11:53:00,84.9,50.0,29.89,ESE,107,0.0,0.0,30,0.00,,CLR,0.00,756.00,VWS V14.01,2013-06-17 16:53:00,
2013-06-17 11:58:00,85.3,51.3,29.89,ESE,107,4.0,4.0,31,0.00,,CLR,0.00,652.00,VWS V14.01,2013-06-17 16:58:00,
2013-06-17 12:03:00,85.1,49.3,29.89,ESE,107,0.0,4.0,29,0.00,,CLR,0.00,635.00,VWS V14.01,2013-06-17 17:03:00,
2013-06-17 12:08:00,84.5,50.6,29.88,ESE,107,0.0,2.0,31,0.00,,CLR,0.00,592.00,VWS V14.01,2013-06-17 17:08:00,
2013-06-17 12:13:00,84.5,49.7,29.88,ESE,107,0.0,0.0,30,0.00,,CLR,0.00,598.00,VWS V14.01,2013-06-17 17:13:00,
2013-06-17 12:18:00,85.1,47.4,29.88,ESE,107,2.0,4.0,27,0.00,,CLR,0.00,686.00,VWS V14.01,2013-06-17 17:18:00,
2013-06-17 12:23:00,85.3,48.5,29.89,ESE,107,0.0,1.0,28,0.00,,CLR,0.00,622.00,VWS V14.01,2013-06-17 17:23:00,
2013-06-17 12:28:00,85.5,49.7,29.89,ENE,72,0.0,0.0,29,0.00,,CLR,0.00,636.00,VWS V14.01,2013-06-17 17:28:00,
2013-06-17 12:33:00,85.5,50.6,29.89,ENE,72,0.0,0.0,30,0.00,,CLR,0.00,599.00,VWS V14.01,2013-06-17 17:33:00,
2013-06-17 12:38:00,85.7,52.5,29.89,ENE,72,1.0,1.0,32,0.00,,CLR,0.00,629.00,VWS V14.01,2013-06-17 17:38:00,
2013-06-17 12:43:00,85.7,51.6,29.89,East,92,0.0,5.0,31,0.00,,CLR,0.00,591.00,VWS V14.01,2013-06-17 17:43:00,
2013-06-17 12:48:00,85.3,50.4,29.89,South,188,0.0,5.0,30,0.00,,CLR,0.00,598.00,VWS V14.01,2013-06-17 17:48:00,
2013-06-17 12:53:00,84.9,50.0,29.89,South,188,0.0,3.0,30,0.00,,CLR,0.00,626.00,VWS V14.01,2013-06-17 17:53:00,
2013-06-17 12:58:00,85.1,52.0,29.89,SSW,203,0.0,2.0,32,0.00,,CLR,0.00,707.00,VWS V14.01,2013-06-17 17:58:00,
2013-06-17 13:03:00,85.5,57.7,29.89,SSW,202,1.0,2.0,39,0.00,,CLR,0.00,694.00,VWS V14.01,2013-06-17 18:03:00,
2013-06-17 13:08:00,85.3,58.3,29.89,WSW,243,0.0,1.0,40,0.00,,CLR,0.00,657.00,VWS V14.01,2013-06-17 18:08:00,
2013-06-17 13:13:00,84.7,57.0,29.89,South,173,2.0,6.0,39,0.00,,CLR,0.00,657.00,VWS V14.01,2013-06-17 18:13:00,
2013-06-17 13:18:00,84.1,56.5,29.89,SSE,155,1.0,6.0,39,0.00,,CLR,0.00,647.00,VWS V14.01,2013-06-17 18:18:00,
2013-06-17 13:23:00,84.1,57.2,29.89,SSE,155,2.0,5.0,40,0.00,,CLR,0.00,636.00,VWS V14.01,2013-06-17 18:23:00,
2013-06-17 13:28:00,84.3,58.7,29.89,WSW,250,2.0,5.0,42,0.00,,CLR,0.00,601.00,VWS V14.01,2013-06-17 18:28:00,
2013-06-17 13:33:00,84.3,58.1,29.89,SW,235,3.0,6.0,41,0.00,,CLR,0.00,635.00,VWS V14.01,2013-06-17 18:33:00,
2013-06-17 13:38:00,84.5,55.4,29.88,SW,214,1.0,6.0,37,0.00,,CLR,0.00,733.00,VWS V14.01,2013-06-17 18:38:00,
2013-06-17 13:43:00,84.5,54.6,29.88,SW,221,0.0,2.0,36,0.00,,CLR,0.00,731.00,VWS V14.01,2013-06-17 18:43:00,
2013-06-17 13:48:00,84.5,54.6,29.88,SW,220,1.0,4.0,36,0.00,,CLR,0.00,735.00,VWS V14.01,2013-06-17 18:48:00,
2013-06-17 13:54:00,84.3,54.5,29.88,SSE,154,2.0,6.0,36,0.00,,CLR,0.00,745.00,VWS V14.01,2013-06-17 18:54:00,
2013-06-17 13:59:00,84.1,54.3,29.88,SSE,153,1.0,5.0,36,0.00,,CLR,0.00,744.00,VWS V14.01,2013-06-17 18:59:00,
2013-06-17 14:04:00,84.5,56.1,29.88,SSE,153,0.0,1.0,38,0.00,,FEW060,0.00,749.00,VWS V14.01,2013-06-17 19:04:00,
2013-06-17 14:09:00,84.7,54.8,29.87,SSE,154,1.0,1.0,36,0.00,,FEW060,0.00,754.00,VWS V14.01,2013-06-17 19:09:00,
2013-06-17 14:14:00,85.3,56.8,29.87,SSE,154,0.0,2.0,38,0.00,,FEW060,0.00,849.00,VWS V14.01,2013-06-17 19:14:00,
2013-06-17 14:19:00,85.5,52.3,29.87,West,259,4.0,8.0,32,0.00,,FEW060,0.00,737.00,VWS V14.01,2013-06-17 19:19:00,
2013-06-17 14:24:00,85.3,53.0,29.86,WSW,244,0.0,4.0,33,0.00,,FEW060,0.00,838.00,VWS V14.01,2013-06-17 19:24:00,
2013-06-17 14:30:00,85.3,50.4,29.86,WSW,240,1.0,3.0,30,0.00,,FEW060,0.00,744.00,VWS V14.01,2013-06-17 19:30:00,
2013-06-17 14:35:00,85.3,50.4,29.86,WSW,240,0.0,2.0,30,0.00,,FEW060,0.00,707.00,VWS V14.01,2013-06-17 19:35:00,
2013-06-17 14:40:00,85.5,52.3,29.85,SW,234,1.0,2.0,32,0.00,,FEW060,0.00,691.00,VWS V14.01,2013-06-17 19:40:00,
2013-06-17 14:45:00,85.9,50.9,29.85,SW,234,0.0,0.0,30,0.00,,FEW060,0.00,633.00,VWS V14.01,2013-06-17 19:45:00,
2013-06-17 14:50:00,86.3,52.1,29.85,SW,234,0.0,1.0,31,0.00,,FEW060,0.00,621.00,VWS V14.01,2013-06-17 19:50:00,
2013-06-17 14:55:00,86.5,50.5,29.85,SW,234,1.0,2.0,29,0.00,,FEW060,0.00,659.00,VWS V14.01,2013-06-17 19:55:00,
2013-06-17 15:00:00,86.5,50.5,29.84,SW,234,0.0,2.0,29,0.00,,CLR,0.00,571.00,VWS V14.01,2013-06-17 20:00:00,
2013-06-17 15:05:00,86.5,52.3,29.84,SW,234,0.0,0.0,31,0.00,,CLR,0.00,541.00,VWS V14.01,2013-06-17 20:05:00,
2013-06-17 15:10:00,86.5,54.0,29.84,SW,234,0.0,1.0,33,0.00,,CLR,0.00,543.00,VWS V14.01,2013-06-17 20:10:00,
2013-06-17 15:15:00,86.5,54.8,29.84,SW,234,0.0,0.0,34,0.00,,CLR,0.00,577.00,VWS V14.01,2013-06-17 20:15:00,
2013-06-17 15:20:00,86.3,52.1,29.83,SW,234,0.0,1.0,31,0.00,,CLR,0.00,633.00,VWS V14.01,2013-06-17 20:20:00,
2013-06-17 15:25:00,86.3,53.0,29.83,SW,221,0.0,0.0,32,0.00,,CLR,0.00,636.00,VWS V14.01,2013-06-17 20:25:00,
2013-06-17 15:30:00,86.3,52.1,29.82,SW,221,0.0,1.0,31,0.00,,CLR,0.00,585.00,VWS V14.01,2013-06-17 20:30:00,
2013-06-17 15:35:00,86.3,55.5,29.82,SW,220,1.0,1.0,35,0.00,,CLR,0.00,545.00,VWS V14.01,2013-06-17 20:35:00,
2013-06-17 15:40:00,86.3,53.8,29.82,West,268,5.0,7.0,33,0.00,,CLR,0.00,613.00,VWS V14.01,2013-06-17 20:40:00,
2013-06-17 15:45:00,85.9,52.7,29.82,West,268,1.0,1.0,32,0.00,,CLR,0.00,496.00,VWS V14.01,2013-06-17 20:45:00,
2013-06-17 15:51:00,85.9,53.5,29.82,West,268,2.0,5.0,33,0.00,,CLR,0.00,503.00,VWS V14.01,2013-06-17 20:51:00,
2013-06-17 15:56:00,85.7,54.9,29.81,West,273,0.0,2.0,35,0.00,,CLR,0.00,485.00,VWS V14.01,2013-06-17 20:56:00,
2013-06-17 16:01:00,85.7,53.3,29.81,West,272,1.0,1.0,33,0.00,,FEW100,0.00,443.00,VWS V14.01,2013-06-17 21:01:00,
2013-06-17 16:06:00,85.9,55.9,29.81,West,272,2.0,3.0,36,0.00,,FEW100,0.00,483.00,VWS V14.01,2013-06-17 21:06:00,
2013-06-17 16:11:00,86.1,55.3,29.81,West,272,0.0,0.0,35,0.00,,FEW100,0.00,454.00,VWS V14.01,2013-06-17 21:11:00,
2013-06-17 16:16:00,86.1,56.0,29.82,WSW,257,0.0,4.0,36,0.00,,FEW100,0.00,455.00,VWS V14.01,2013-06-17 21:16:00,
2013-06-17 16:22:00,85.9,55.9,29.81,South,187,0.0,2.0,36,0.00,,FEW100,0.00,515.00,VWS V14.01,2013-06-17 21:22:00,
2013-06-17 16:27:00,85.7,57.2,29.81,South,187,0.0,1.0,38,0.00,,FEW100,0.00,563.00,VWS V14.01,2013-06-17 21:27:00,
2013-06-17 16:32:00,85.9,58.8,29.81,SSW,201,2.0,5.0,40,0.00,,FEW100,0.00,534.00,VWS V14.01,2013-06-17 21:32:00,
2013-06-17 16:37:00,86.1,56.8,29.82,WSW,254,4.0,4.0,37,0.00,,FEW100,0.00,485.00,VWS V14.01,2013-06-17 21:37:00,
2013-06-17 16:42:00,85.9,55.1,29.82,WSW,254,0.0,0.0,35,0.00,,FEW100,0.00,329.00,VWS V14.01,2013-06-17 21:42:00,
2013-06-17 16:48:00,85.9,54.3,29.82,WSW,254,0.0,0.0,34,0.00,,FEW100,0.00,343.00,VWS V14.01,2013-06-17 21:48:00,
2013-06-17 16:53:00,86.1,57.5,29.82,WSW,254,0.0,0.0,38,0.00,,FEW100,0.00,341.00,VWS V14.01,2013-06-17 21:53:00,
2013-06-17 16:58:00,86.1,56.0,29.83,WSW,254,0.0,0.0,36,0.00,,FEW100,0.00,369.00,VWS V14.01,2013-06-17 21:58:00,
2013-06-17 17:03:00,86.1,54.5,29.83,WSW,239,0.0,1.0,34,0.00,,CLR,0.00,394.00,VWS V14.01,2013-06-17 22:03:00,
2013-06-17 17:08:00,85.7,56.5,29.83,WSW,237,0.0,4.0,37,0.00,,CLR,0.00,401.00,VWS V14.01,2013-06-17 22:08:00,
2013-06-17 17:13:00,85.5,57.0,29.83,SW,226,2.0,5.0,38,0.00,,CLR,0.00,422.00,VWS V14.01,2013-06-17 22:13:00,
2013-06-17 17:18:00,85.1,57.4,29.83,SW,219,5.0,7.0,39,0.00,,CLR,0.00,380.00,VWS V14.01,2013-06-17 22:18:00,
2013-06-17 17:23:00,85.1,56.7,29.82,SSW,207,0.0,3.0,38,0.00,,CLR,0.00,392.00,VWS V14.01,2013-06-17 22:23:00,
2013-06-17 17:28:00,84.9,55.8,29.83,SSW,209,2.0,3.0,37,0.00,,CLR,0.00,396.00,VWS V14.01,2013-06-17 22:28:00,
2013-06-17 17:33:00,84.9,55.8,29.82,SSW,202,1.0,2.0,37,0.00,,CLR,0.00,315.00,VWS V14.01,2013-06-17 22:33:00,
2013-06-17 17:38:00,84.9,55.8,29.82,SSW,202,0.0,3.0,37,0.00,,CLR,0.00,281.00,VWS V14.01,2013-06-17 22:38:00,
2013-06-17 17:44:00,84.7,55.6,29.82,SSW,205,1.0,6.0,37,0.00,,CLR,0.00,220.00,VWS V14.01,2013-06-17 22:44:00,
2013-06-17 17:49:00,84.5,55.4,29.82,SSW,205,3.0,5.0,37,0.00,,CLR,0.00,197.00,VWS V14.01,2013-06-17 22:49:00,
2013-06-17 17:54:00,84.3,54.5,29.81,SSW,203,0.0,4.0,36,0.00,,CLR,0.00,181.00,VWS V14.01,2013-06-17 22:54:00,
2013-06-17 17:59:00,84.1,53.5,29.82,SSW,203,0.0,2.0,35,0.00,,CLR,0.00,156.00,VWS V14.01,2013-06-17 22:59:00,
2013-06-17 18:04:00,84.1,55.0,29.82,SSW,204,0.0,1.0,37,0.00,,CLR,0.00,142.00,VWS V14.01,2013-06-17 23:04:00,
2013-06-17 18:09:00,84.1,56.5,29.82,SSW,204,0.0,0.0,39,0.00,,CLR,0.00,134.00,VWS V14.01,2013-06-17 23:09:00,
2013-06-17 18:14:00,84.0,56.4,29.82,SSW,204,3.0,3.0,39,0.00,,CLR,0.00,123.00,VWS V14.01,2013-06-17 23:14:00,
2013-06-17 18:19:00,83.8,54.0,29.82,SSW,204,3.0,3.0,36,0.00,,CLR,0.00,120.00,VWS V14.01,2013-06-17 23:19:00,
2013-06-17 18:24:00,83.6,56.0,29.82,SSW,207,2.0,4.0,39,0.00,,CLR,0.00,111.00,VWS V14.01,2013-06-17 23:24:00,
2013-06-17 18:30:00,83.2,55.0,29.81,SW,218,3.0,5.0,38,0.00,,CLR,0.00,114.00,VWS V14.01,2013-06-17 23:30:00,
2013-06-17 18:36:00,83.0,55.5,29.82,SW,219,0.0,0.0,39,0.00,,CLR,0.00,102.00,VWS V14.01,2013-06-17 23:36:00,
2013-06-17 18:42:00,82.6,57.2,29.82,West,281,4.0,5.0,42,0.00,,CLR,0.00,93.00,VWS V14.01,2013-06-17 23:42:00,
2013-06-17 18:47:00,82.4,57.7,29.82,WSW,250,4.0,5.0,43,0.00,,CLR,0.00,79.00,VWS V14.01,2013-06-17 23:47:00,
2013-06-17 18:52:00,82.2,57.5,29.82,WSW,253,2.0,3.0,43,0.00,,CLR,0.00,72.00,VWS V14.01,2013-06-17 23:52:00,
2013-06-17 18:57:00,82.0,57.3,29.82,WSW,253,5.0,5.0,43,0.00,,CLR,0.00,67.00,VWS V14.01,2013-06-17 23:57:00,
2013-06-17 19:02:00,81.8,57.1,29.82,WSW,253,0.0,4.0,43,0.00,,FEW070,0.00,65.00,VWS V14.01,2013-06-18 00:02:00,
2013-06-17 19:08:00,81.6,57.6,29.82,WSW,253,1.0,2.0,44,0.00,,FEW070,0.00,62.00,VWS V14.01,2013-06-18 00:08:00,
2013-06-17 19:13:00,81.6,58.2,29.82,WSW,253,0.0,1.0,45,0.00,,FEW070,0.00,56.00,VWS V14.01,2013-06-18 00:13:00,
2013-06-17 19:18:00,81.4,58.0,29.82,WSW,253,2.0,2.0,45,0.00,,FEW070,0.00,47.00,VWS V14.01,2013-06-18 00:18:00,
2013-06-17 19:24:00,81.2,57.9,29.82,WSW,253,0.0,1.0,45,0.00,,FEW070,0.00,40.00,VWS V14.01,2013-06-18 00:24:00,
2013-06-17 19:29:00,81.1,58.4,29.82,WSW,253,2.0,2.0,46,0.00,,FEW070,0.00,37.00,VWS V14.01,2013-06-18 00:29:00,
2013-06-17 19:34:00,80.9,57.6,29.82,WSW,253,0.0,2.0,45,0.00,,FEW070,0.00,37.00,VWS V14.01,2013-06-18 00:34:00,
2013-06-17 19:39:00,80.7,58.0,29.82,WSW,252,1.0,4.0,46,0.00,,FEW070,0.00,32.00,VWS V14.01,2013-06-18 00:39:00,
2013-06-17 19:44:00,80.7,58.0,29.82,WSW,252,0.0,0.0,46,0.00,,FEW070,0.00,26.00,VWS V14.01,2013-06-18 00:44:00,
2013-06-17 19:49:00,80.5,57.8,29.82,WSW,252,0.0,1.0,46,0.00,,FEW070,0.00,25.00,VWS V14.01,2013-06-18 00:49:00,
2013-06-17 19:54:00,80.3,58.2,29.82,WSW,252,0.0,2.0,47,0.00,,FEW070,0.00,21.00,VWS V14.01,2013-06-18 00:54:00,
2013-06-17 19:59:00,80.1,58.1,29.82,WSW,252,0.0,0.0,47,0.00,,FEW070,0.00,16.00,VWS V14.01,2013-06-18 00:59:00,
2013-06-17 20:04:00,79.9,58.5,29.82,WSW,252,0.0,0.0,48,0.00,,CLR,0.00,16.00,VWS V14.01,2013-06-18 01:04:00,
2013-06-17 20:10:00,79.6,58.2,29.82,WSW,252,0.0,1.0,48,0.00,,CLR,0.00,14.00,VWS V14.01,2013-06-18 01:10:00,
2013-06-17 20:15:00,79.6,58.8,29.82,WSW,252,0.0,0.0,49,0.00,,CLR,0.00,9.00,VWS V14.01,2013-06-18 01:15:00,
2013-06-17 20:20:00,79.4,59.2,29.82,WSW,252,1.0,1.0,50,0.00,,CLR,0.00,5.00,VWS V14.01,2013-06-18 01:20:00,
2013-06-17 20:25:00,79.2,59.5,29.82,WSW,252,1.0,1.0,51,0.00,,CLR,0.00,0.00,VWS V14.01,2013-06-18 01:25:00,
2013-06-17 20:31:00,79.0,59.9,29.82,WSW,252,0.0,1.0,52,0.00,,CLR,0.00,7.00,VWS V14.01,2013-06-18 01:31:00,
2013-06-17 20:36:00,78.8,60.2,29.82,WSW,252,0.0,0.0,53,0.00,,CLR,0.00,0.00,VWS V14.01,2013-06-18 01:36:00,
2013-06-17 20:41:00,78.6,60.6,29.82,WSW,252,0.0,2.0,54,0.00,,CLR,0.00,0.00,VWS V14.01,2013-06-18 01:41:00,
2013-06-17 20:46:00,78.3,60.3,29.82,WSW,252,0.0,1.0,54,0.00,,CLR,0.00,0.00,VWS V14.01,2013-06-18 01:46:00,
2013-06-17 20:51:00,78.1,60.6,29.82,WSW,252,0.0,1.0,55,0.00,,CLR,0.00,0.00,VWS V14.01,2013-06-18 01:51:00,
2013-06-17 20:56:00,78.1,61.1,29.81,WSW,252,0.0,1.0,56,0.00,,CLR,0.00,0.00,VWS V14.01,2013-06-18 01:56:00,
2013-06-17 21:01:00,77.9,61.0,29.82,WSW,252,0.0,0.0,56,0.00,,CLR,0.00,0.00,VWS V14.01,2013-06-18 02:01:00,
2013-06-17 21:06:00,77.7,61.3,29.82,WSW,252,0.0,0.0,57,0.00,,CLR,0.00,0.00,VWS V14.01,2013-06-18 02:06:00,
2013-06-17 21:11:00,77.6,61.2,29.82,WSW,252,0.0,0.0,57,0.00,,CLR,0.00,0.00,VWS V14.01,2013-06-18 02:11:00,
2013-06-17 21:16:00,77.4,61.0,29.82,WSW,252,0.0,3.0,57,0.00,,CLR,0.00,0.00,VWS V14.01,2013-06-18 02:16:00,
2013-06-17 21:21:00,77.2,61.3,29.82,WSW,252,0.0,0.0,58,0.00,,CLR,0.00,0.00,VWS V14.01,2013-06-18 02:21:00,
2013-06-17 21:26:00,77.0,61.1,29.81,WSW,252,0.0,0.0,58,0.00,,CLR,0.00,0.00,VWS V14.01,2013-06-18 02:26:00,
2013-06-17 21:31:00,76.8,61.9,29.81,WSW,252,0.0,0.0,60,0.00,,CLR,0.00,0.00,VWS V14.01,2013-06-18 02:31:00,
2013-06-17 21:36:00,76.5,61.6,29.81,WSW,252,0.0,0.0,60,0.00,,CLR,0.00,0.00,VWS V14.01,2013-06-18 02:36:00,
2013-06-17 21:41:00,76.1,61.2,29.81,WSW,252,0.0,0.0,60,0.00,,CLR,0.00,0.00,VWS V14.01,2013-06-18 02:41:00,
2013-06-17 21:46:00,76.0,61.1,29.81,WSW,252,0.0,0.0,60,0.00,,CLR,0.00,0.00,VWS V14.01,2013-06-18 02:46:00,
2013-06-17 21:51:00,75.8,60.9,29.81,WSW,252,0.0,2.0,60,0.00,,CLR,0.00,0.00,VWS V14.01,2013-06-18 02:51:00,
2013-06-17 21:56:00,75.6,61.2,29.81,WSW,252,0.0,1.0,61,0.00,,CLR,0.00,0.00,VWS V14.01,2013-06-18 02:56:00,
2013-06-17 22:01:00,75.3,61.4,29.82,WSW,252,0.0,0.0,62,0.00,,CLR,0.00,0.00,VWS V14.01,2013-06-18 03:01:00,
2013-06-17 22:06:00,75.1,61.7,29.81,WSW,252,0.0,0.0,63,0.00,,CLR,0.00,0.00,VWS V14.01,2013-06-18 03:06:00,
2013-06-17 22:11:00,74.7,61.3,29.82,WSW,252,0.0,0.0,63,0.00,,CLR,0.00,0.00,VWS V14.01,2013-06-18 03:11:00,
2013-06-17 22:16:00,74.6,62.1,29.82,WSW,252,0.0,0.0,65,0.00,,CLR,0.00,0.00,VWS V14.01,2013-06-18 03:16:00,
2013-06-17 22:21:00,74.2,61.7,29.82,WSW,252,0.0,0.0,65,0.00,,CLR,0.00,0.00,VWS V14.01,2013-06-18 03:21:00,
2013-06-17 22:27:00,74.0,61.1,29.82,WSW,252,0.0,0.0,64,0.00,,CLR,0.00,0.00,VWS V14.01,2013-06-18 03:27:00,
2013-06-17 22:32:00,74.0,61.1,29.82,WSW,252,0.0,0.0,64,0.00,,CLR,0.00,0.00,VWS V14.01,2013-06-18 03:32:00,
2013-06-17 22:38:00,74.0,61.5,29.82,WSW,252,0.0,0.0,65,0.00,,CLR,0.00,0.00,VWS V14.01,2013-06-18 03:38:00,
2013-06-17 22:43:00,74.0,61.5,29.82,WSW,252,0.0,0.0,65,0.00,,CLR,0.00,0.00,VWS V14.01,2013-06-18 03:43:00,
2013-06-17 22:48:00,73.9,61.4,29.82,WSW,252,0.0,0.0,65,0.00,,CLR,0.00,0.00,VWS V14.01,2013-06-18 03:48:00,
2013-06-17 22:53:00,73.9,61.4,29.82,WSW,252,0.0,0.0,65,0.00,,CLR,0.00,0.00,VWS V14.01,2013-06-18 03:53:00,
2013-06-17 22:59:00,73.9,61.4,29.82,WSW,252,0.0,0.0,65,0.00,,CLR,0.00,0.00,VWS V14.01,2013-06-18 03:59:00,
2013-06-17 23:01:00,73.9,61.4,29.82,WSW,252,0.0,0.0,65,0.00,,CLR,0.00,0.00,VWS V14.01,2013-06-18 04:01:00,
2013-06-17 23:02:00,73.9,61.4,29.82,WSW,252,0.0,0.0,65,0.00,,CLR,0.00,0.00,VWS V14.01,2013-06-18 04:02:00,
2013-06-17 23:03:00,73.9,61.4,29.82,WSW,252,0.0,0.0,65,0.00,,CLR,0.00,0.00,VWS V14.01,2013-06-18 04:03:00,
2013-06-17 23:04:00,73.9,61.4,29.82,WSW,252,0.0,1.0,65,0.00,,CLR,0.00,0.00,VWS V14.01,2013-06-18 04:04:00,
2013-06-17 23:05:00,73.9,61.4,29.82,WSW,252,1.0,1.0,65,0.00,,CLR,0.00,0.00,VWS V14.01,2013-06-18 04:05:00,
2013-06-17 23:10:00,73.7,61.7,29.82,WSW,252,0.0,0.0,66,0.00,,CLR,0.00,0.00,VWS V14.01,2013-06-18 04:10:00,
2013-06-17 23:15:00,73.7,61.7,29.82,WSW,252,0.0,0.0,66,0.00,,CLR,0.00,0.00,VWS V14.01,2013-06-18 04:15:00,
2013-06-17 23:20:00,73.5,61.5,29.82,WSW,252,0.0,1.0,66,0.00,,CLR,0.00,0.00,VWS V14.01,2013-06-18 04:20:00,
2013-06-17 23:25:00,73.2,62.4,29.82,WSW,245,1.0,2.0,69,0.00,,CLR,0.00,0.00,VWS V14.01,2013-06-18 04:25:00,
2013-06-17 23:30:00,73.0,61.8,29.82,WSW,245,0.0,4.0,68,0.00,,CLR,0.00,0.00,VWS V14.01,2013-06-18 04:30:00,
2013-06-17 23:36:00,73.2,62.0,29.82,WSW,245,1.0,2.0,68,0.00,,CLR,0.00,0.00,VWS V14.01,2013-06-18 04:36:00,
2013-06-17 23:41:00,73.2,62.8,29.82,SW,229,0.0,1.0,70,0.00,,CLR,0.00,0.00,VWS V14.01,2013-06-18 04:41:00,
2013-06-17 23:46:00,72.8,63.3,29.82,SW,229,0.0,1.0,72,0.00,,CLR,0.00,0.00,VWS V14.01,2013-06-18 04:46:00,
2013-06-17 23:51:00,72.5,63.4,29.82,SW,229,0.0,0.0,73,0.00,,CLR,0.00,0.00,VWS V14.01,2013-06-18 04:51:00,
2013-06-17 23:56:00,72.0,63.7,29.82,SW,229,0.0,5.0,75,0.00,,CLR,0.00,0.00,VWS V14.01,2013-06-18 04:56:00,